Leander, TX

10:01 AM CDT on September 27, 2016 (GMT -0500)
Lago Vista

Weather History for KRYW - October, 2012

Change the Weather History Date:

Tuesday, October 23, 2012

  Actual Average (KATT) Record (KATT)
Temperature  
Mean Temperature 74 °F 69 °F  
Max Temperature 80 °F 80 °F 94 °F (2003)
Min Temperature 69 °F 59 °F 36 °F (1923)
Degree Days  
Heating Degree Days 0 1  
Month to date heating degree days 12  
Since 1 July heating degree days 14  
Cooling Degree Days 10 5  
Month to date cooling degree days 183  
Year to date cooling degree days 3027  
Growing Degree Days 24 (Base 50)    
Moisture  
Dew Point 67 °F    
Average Humidity 76    
Maximum Humidity 94    
Minimum Humidity 61    
Precipitation  
Precipitation 0.00 in 0.14 in 4.12 in (1953)
Month to date precipitation 2.94  
Year to date precipitation 28.02  
Snow  
Snow 0.00 in - - ()
Month to date snowfall  
Since 1 July snowfall  
Since 1 September snowfall  
Snow Depth -    
Sea Level Pressure  
Sea Level Pressure 29.97 in    
Wind  
Wind Speed 7 mph (SSE)    
Max Wind Speed 12 mph    
Max Gust Speed 17 mph    
Visibility 10 miles    
Events Rain    
T = Trace of Precipitation, MM = Missing Value Source: NWS Daily Summary

Daily Weather History Graph

Daily Weather History Graph

Search for Another Location

Airport or City:

Trip Planner

Search our weather history database for the weather conditions in past years. The results will help you decide how hot, cold, wet, or windy it might be!

Date:

Astronomy

Oct. 23, 2012 Rise Set
Actual Time 7:40 AM CDT 6:51 PM CDT
Civil Twilight 7:15 AM CDT 7:16 PM CDT
Nautical Twilight 6:47 AM CDT 7:44 PM CDT
Astronomical Twilight 6:19 AM CDT 8:12 PM CDT
Moon 3:14 PM CDT (10/23) 1:57 AM CDT (10/23)
Length of Visible Light 12h 00m
Length of Day
11h 11m
Waxing Gibbous, 67% of the Moon is Illuminated
Oct 23
Waxing Gibbous
Oct 29
Full
Nov 6
Last Quarter
Nov 13
New
Nov 20
First Quarter

Hourly Weather History & Observations

Time (CDT) Temp. Heat Index Dew Point Humidity Pressure Visibility Wind Dir Wind Speed Gust Speed Precip Events Conditions
12:35 AM 71.6 °F - 66.2 °F 83% 29.97 in 10.0 mi SSE 10.4 mph 17.3 mph N/A   Overcast
1:15 AM 71.6 °F - 66.2 °F 83% 29.97 in 10.0 mi SSE 8.1 mph 16.1 mph N/A   Overcast
1:55 AM 71.6 °F - 68.0 °F 88% 29.97 in 10.0 mi SSE 8.1 mph 16.1 mph N/A   Overcast
2:35 AM 71.6 °F - 68.0 °F 88% 29.96 in 10.0 mi SSE 8.1 mph - N/A   Overcast
2:55 AM 71.6 °F - 68.0 °F 88% 29.96 in 10.0 mi SSE 8.1 mph 16.1 mph N/A   Overcast
3:15 AM 71.6 °F - 68.0 °F 88% 29.96 in 10.0 mi SSE 9.2 mph - N/A   Overcast
3:35 AM 71.6 °F - 68.0 °F 88% 29.96 in 10.0 mi SSE 6.9 mph - N/A   Overcast
3:55 AM 71.6 °F - 68.0 °F 88% 29.96 in 10.0 mi South 8.1 mph - N/A   Overcast
4:15 AM 71.6 °F - 68.0 °F 88% 29.96 in 10.0 mi South 6.9 mph - N/A   Overcast
4:35 AM 71.6 °F - 68.0 °F 88% 29.96 in 10.0 mi South 6.9 mph - N/A   Overcast
4:55 AM 71.6 °F - 68.0 °F 88% 29.96 in 10.0 mi SSE 6.9 mph - N/A   Overcast
5:15 AM 71.6 °F - 68.0 °F 88% 29.96 in 10.0 mi SSE 5.8 mph - N/A   Overcast
5:55 AM 71.6 °F - 68.0 °F 88% 29.97 in 10.0 mi SSE 4.6 mph - N/A   Overcast
6:35 AM 71.6 °F - 68.0 °F 88% 29.98 in 10.0 mi SSE 4.6 mph - N/A   Overcast
7:15 AM 71.6 °F - 68.0 °F 88% 29.98 in 10.0 mi SE 4.6 mph - N/A   Overcast
8:55 AM 69.8 °F - 68.0 °F 94% 30.00 in 7.0 mi SE 8.1 mph - N/A   Overcast
9:35 AM 71.6 °F - 68.0 °F 88% 30.01 in 7.0 mi SSE 5.8 mph - N/A Rain Light Rain
10:15 AM 71.6 °F - 68.0 °F 88% 30.01 in 7.0 mi SE 8.1 mph - N/A Rain Light Rain
10:35 AM 71.6 °F - 68.0 °F 88% 30.02 in 7.0 mi SSE 6.9 mph - N/A   Overcast
10:55 AM 71.6 °F - 68.0 °F 88% 30.01 in 10.0 mi SSE 9.2 mph 16.1 mph N/A   Overcast
11:15 AM 73.4 °F - 68.0 °F 83% 30.01 in 10.0 mi SSE 6.9 mph - N/A   Overcast
11:35 AM 73.4 °F - 68.0 °F 83% 30.01 in 10.0 mi SSE 11.5 mph 16.1 mph N/A   Overcast
11:55 AM 75.2 °F - 68.0 °F 78% 30.01 in 10.0 mi SSE 5.8 mph - N/A   Overcast
12:15 PM 75.2 °F - 68.0 °F 78% 30.01 in 10.0 mi SSE 6.9 mph - N/A   Overcast
12:35 PM 77.0 °F - 68.0 °F 74% 30.00 in 10.0 mi South 9.2 mph - N/A   Overcast
12:55 PM 77.0 °F - 68.0 °F 74% 30.00 in 10.0 mi SSE 6.9 mph - N/A   Overcast
1:15 PM 77.0 °F - 68.0 °F 74% 29.99 in 10.0 mi South 9.2 mph - N/A   Overcast
1:35 PM 77.0 °F - 68.0 °F 74% 29.99 in 10.0 mi SSE 4.6 mph - N/A   Overcast
1:55 PM 77.0 °F - 68.0 °F 74% 29.98 in 10.0 mi South 5.8 mph - N/A   Overcast
2:15 PM 78.8 °F - 68.0 °F 69% 29.97 in 10.0 mi SSE 5.8 mph - N/A   Overcast
2:35 PM 78.8 °F - 66.2 °F 65% 29.97 in 10.0 mi SE 6.9 mph - N/A   Overcast
2:55 PM 78.8 °F - 68.0 °F 69% 29.96 in 10.0 mi SE 5.8 mph - N/A   Overcast
3:15 PM 78.8 °F - 68.0 °F 69% 29.96 in 10.0 mi SE 6.9 mph - N/A   Overcast
3:35 PM 80.6 °F 82.7 °F 66.2 °F 61% 29.95 in 10.0 mi SE 4.6 mph - N/A   Overcast
3:55 PM 80.6 °F 82.7 °F 66.2 °F 61% 29.95 in 10.0 mi SE 5.8 mph - N/A   Overcast
4:15 PM 80.6 °F 82.7 °F 66.2 °F 61% 29.95 in 10.0 mi SE 3.5 mph - N/A   Overcast
4:35 PM 80.6 °F 82.7 °F 66.2 °F 61% 29.95 in 10.0 mi ESE 5.8 mph 10.4 mph N/A   Scattered Clouds
4:55 PM 80.6 °F 82.7 °F 66.2 °F 61% 29.95 in 10.0 mi SE 4.6 mph - N/A   Scattered Clouds
5:15 PM 80.6 °F 82.7 °F 66.2 °F 61% 29.94 in 10.0 mi SSE 4.6 mph - N/A   Mostly Cloudy
5:35 PM 80.6 °F 82.7 °F 66.2 °F 61% 29.94 in 10.0 mi SE 5.8 mph - N/A   Mostly Cloudy
5:55 PM 78.8 °F - 66.2 °F 65% 29.94 in 10.0 mi SE 4.6 mph - N/A   Scattered Clouds
6:15 PM 78.8 °F - 66.2 °F 65% 29.94 in 10.0 mi ESE 3.5 mph - N/A   Clear
6:35 PM 77.0 °F - 66.2 °F 69% 29.94 in 10.0 mi SE 3.5 mph - N/A   Clear
6:55 PM 77.0 °F - 66.2 °F 69% 29.95 in 10.0 mi ESE 3.5 mph - N/A   Scattered Clouds
7:15 PM 77.0 °F - 66.2 °F 69% 29.95 in 10.0 mi ESE 3.5 mph - N/A   Mostly Cloudy
7:35 PM 77.0 °F - 64.4 °F 65% 29.96 in 10.0 mi ESE 3.5 mph - N/A   Mostly Cloudy
7:55 PM 77.0 °F - 64.4 °F 65% 29.96 in 10.0 mi ESE 4.6 mph - N/A   Mostly Cloudy
8:15 PM 75.2 °F - 64.4 °F 69% 29.96 in 10.0 mi SE 4.6 mph - N/A   Mostly Cloudy
8:35 PM 75.2 °F - 64.4 °F 69% 29.96 in 10.0 mi SE 5.8 mph - N/A   Scattered Clouds
8:55 PM 73.4 °F - 64.4 °F 73% 29.97 in 10.0 mi SE 4.6 mph - N/A   Clear
9:15 PM 73.4 °F - 64.4 °F 73% 29.97 in 10.0 mi SE 8.1 mph - N/A   Clear
9:35 PM 73.4 °F - 64.4 °F 73% 29.97 in 10.0 mi SE 9.2 mph - N/A   Clear
9:55 PM 73.4 °F - 64.4 °F 73% 29.98 in 10.0 mi SE 9.2 mph 16.1 mph N/A   Clear
10:15 PM 73.4 °F - 64.4 °F 73% 29.98 in 10.0 mi SSE 8.1 mph 16.1 mph N/A   Clear
10:35 PM 73.4 °F - 64.4 °F 73% 29.98 in 10.0 mi SE 11.5 mph 16.1 mph N/A   Clear
10:55 PM 73.4 °F - 64.4 °F 73% 29.98 in 10.0 mi SSE 8.1 mph 16.1 mph N/A   Clear
11:15 PM 71.6 °F - 64.4 °F 78% 29.98 in 10.0 mi SE 10.4 mph 16.1 mph N/A   Clear
11:35 PM 71.6 °F - 64.4 °F 78% 29.98 in 10.0 mi SE 8.1 mph - N/A   Clear
11:55 PM 71.6 °F - 64.4 °F 78% 29.98 in 10.0 mi SSE 6.9 mph - N/A   Clear